timestamp,wind_dir_avg,wind_spd_max_dir,wind_spd_avg,wind_spd_gust,battery_voltage,lat,long
2018-03-30 00:00:00+00:00,11.0,13.0,8.37,9.6,,47.59359,-54.27349
2018-03-30 00:10:00+00:00,7.0,13.0,8.37,10.42,,47.59359,-54.27349
2018-03-30 00:20:00+00:00,23.0,23.0,9.71,11.69,,47.59359,-54.27349
2018-03-30 00:30:00+00:00,24.0,25.0,9.5,11.12,,47.59359,-54.27349
2018-03-30 00:40:00+00:00,15.0,21.0,8.09,10.14,,47.59359,-54.27349
2018-03-30 00:50:00+00:00,9.0,10.0,7.97,9.17,,47.59359,-54.27349
2018-03-30 01:00:00+00:00,0.0,4.0,8.72,10.78,,47.59359,-54.27349
2018-03-30 01:10:00+00:00,1.0,4.0,9.04,10.13,,47.59359,-54.27349
2018-03-30 01:20:00+00:00,8.0,8.0,7.17,8.23,,47.59359,-54.27349
2018-03-30 01:30:00+00:00,21.0,18.0,9.27,11.81,,47.59359,-54.27349
2018-03-30 01:40:00+00:00,14.0,9.0,8.76,10.28,,47.59359,-54.27349
2018-03-30 01:50:00+00:00,16.0,5.0,8.24,9.98,,47.59359,-54.27349
2018-03-30 02:00:00+00:00,13.0,5.0,10.65,11.83,,47.59359,-54.27349
2018-03-30 02:10:00+00:00,14.0,13.0,7.64,8.96,,47.59359,-54.27349
2018-03-30 02:20:00+00:00,16.0,16.0,8.0,10.65,,47.59359,-54.27349
2018-03-30 02:30:00+00:00,12.0,11.0,7.51,9.7,,47.59359,-54.27349
2018-03-30 02:40:00+00:00,14.0,12.0,7.31,8.1,,47.59359,-54.27349
2018-03-30 02:50:00+00:00,18.0,12.0,6.82,7.76,,47.59359,-54.27349
2018-03-30 03:00:00+00:00,9.0,16.0,8.39,9.43,,47.59359,-54.27349
2018-03-30 03:10:00+00:00,355.0,356.0,9.58,12.07,,47.59359,-54.27349
2018-03-30 03:20:00+00:00,1.0,3.0,7.98,9.17,,47.59359,-54.27349
2018-03-30 03:30:00+00:00,1.0,1.0,8.83,10.61,,47.59359,-54.27349
2018-03-30 03:40:00+00:00,7.0,13.0,9.46,10.96,,47.59359,-54.27349
2018-03-30 03:50:00+00:00,6.0,7.0,9.09,9.97,,47.59359,-54.27349
2018-03-30 04:00:00+00:00,8.0,11.0,8.98,10.76,,47.59359,-54.27349
2018-03-30 04:10:00+00:00,354.0,359.0,9.69,10.98,,47.59359,-54.27349
2018-03-30 04:20:00+00:00,358.0,359.0,7.79,8.32,,47.59359,-54.27349
2018-03-30 04:30:00+00:00,1.0,5.0,8.75,10.14,,47.59359,-54.27349
2018-03-30 04:40:00+00:00,353.0,355.0,8.46,9.94,,47.59359,-54.27349
2018-03-30 04:50:00+00:00,356.0,354.0,8.91,10.45,,47.59359,-54.27349
2018-03-30 05:00:00+00:00,359.0,2.0,7.61,8.79,,47.59359,-54.27349
2018-03-30 05:10:00+00:00,8.0,10.0,6.22,7.24,,47.59359,-54.27349
2018-03-30 05:20:00+00:00,2.0,0.0,6.89,7.63,,47.59359,-54.27349
2018-03-30 05:30:00+00:00,353.0,349.0,6.46,8.02,,47.59359,-54.27349
2018-03-30 05:40:00+00:00,349.0,350.0,6.3,6.87,,47.59359,-54.27349
2018-03-30 05:50:00+00:00,350.0,350.0,5.18,6.37,,47.59359,-54.27349
2018-03-30 06:00:00+00:00,348.0,348.0,5.71,7.24,,47.59359,-54.27349
2018-03-30 06:10:00+00:00,342.0,350.0,5.4,6.67,,47.59359,-54.27349
2018-03-30 06:20:00+00:00,339.0,332.0,6.52,9.33,,47.59359,-54.27349
2018-03-30 06:30:00+00:00,344.0,341.0,5.51,6.24,,47.59359,-54.27349
2018-03-30 06:40:00+00:00,355.0,349.0,8.51,9.56,,47.59359,-54.27349
2018-03-30 06:50:00+00:00,356.0,355.0,7.76,9.36,,47.59359,-54.27349
2018-03-30 07:00:00+00:00,347.0,347.0,6.06,6.89,,47.59359,-54.27349
2018-03-30 07:10:00+00:00,349.0,351.0,5.36,6.09,,47.59359,-54.27349
2018-03-30 07:20:00+00:00,352.0,347.0,6.39,7.37,,47.59359,-54.27349
2018-03-30 07:30:00+00:00,9.0,14.0,5.1,6.09,,47.59359,-54.27349
2018-03-30 07:40:00+00:00,352.0,351.0,4.26,5.34,,47.59359,-54.27349
2018-03-30 07:50:00+00:00,8.0,4.0,4.66,5.31,,47.59359,-54.27349
2018-03-30 08:00:00+00:00,9.0,2.0,4.23,4.87,,47.59359,-54.27349
2018-03-30 08:10:00+00:00,356.0,2.0,3.54,4.33,,47.59359,-54.27349
2018-03-30 08:20:00+00:00,13.0,14.0,4.2,4.56,,47.59359,-54.27349
2018-03-30 08:30:00+00:00,2.0,11.0,4.41,5.29,,47.59359,-54.27349
2018-03-30 08:40:00+00:00,356.0,345.0,4.06,4.52,,47.59359,-54.27349
2018-03-30 08:50:00+00:00,337.0,335.0,3.22,3.69,,47.59359,-54.27349
2018-03-30 09:00:00+00:00,337.0,338.0,3.37,3.88,,47.59359,-54.27349
2018-03-30 09:10:00+00:00,343.0,342.0,2.96,3.38,,47.59359,-54.27349
2018-03-30 09:20:00+00:00,324.0,328.0,2.71,3.08,,47.59359,-54.27349
2018-03-30 09:30:00+00:00,334.0,332.0,3.41,3.89,,47.59359,-54.27349
2018-03-30 09:40:00+00:00,337.0,340.0,4.61,5.07,,47.59359,-54.27349
2018-03-30 09:50:00+00:00,341.0,339.0,5.56,6.5,,47.59359,-54.27349
2018-03-30 10:00:00+00:00,339.0,346.0,5.22,6.32,,47.59359,-54.27349
2018-03-30 10:10:00+00:00,331.0,329.0,6.56,7.67,,47.59359,-54.27349
2018-03-30 10:20:00+00:00,344.0,345.0,4.8,5.6,,47.59359,-54.27349
2018-03-30 10:30:00+00:00,341.0,342.0,5.3,6.64,,47.59359,-54.27349
2018-03-30 10:40:00+00:00,344.0,346.0,5.78,6.58,,47.59359,-54.27349
2018-03-30 10:50:00+00:00,349.0,354.0,4.29,4.73,,47.59359,-54.27349
2018-03-30 11:00:00+00:00,335.0,333.0,4.0,4.32,,47.59359,-54.27349
2018-03-30 11:10:00+00:00,323.0,322.0,4.63,5.0,,47.59359,-54.27349
2018-03-30 11:20:00+00:00,339.0,342.0,4.12,4.43,,47.59359,-54.27349
2018-03-30 11:30:00+00:00,2.0,357.0,4.97,5.96,,47.59359,-54.27349
2018-03-30 11:40:00+00:00,2.0,2.0,7.89,8.75,,47.59359,-54.27349
2018-03-30 11:50:00+00:00,7.0,7.0,7.35,9.01,,47.59359,-54.27349
2018-03-30 12:00:00+00:00,347.0,348.0,8.39,10.81,,47.59359,-54.27349
2018-03-30 12:10:00+00:00,6.0,5.0,6.42,7.71,,47.59359,-54.27349
2018-03-30 12:20:00+00:00,356.0,346.0,4.46,5.3,,47.59359,-54.27349
2018-03-30 12:30:00+00:00,30.0,17.0,4.13,4.81,,47.59359,-54.27349
2018-03-30 12:40:00+00:00,15.0,19.0,6.99,8.14,,47.59359,-54.27349
2018-03-30 12:50:00+00:00,15.0,18.0,6.97,7.73,,47.59359,-54.27349
2018-03-30 13:00:00+00:00,26.0,28.0,6.62,7.66,,47.59359,-54.27349
2018-03-30 13:10:00+00:00,34.0,33.0,5.38,5.96,,47.59359,-54.27349
2018-03-30 13:20:00+00:00,27.0,26.0,6.9,7.47,,47.59359,-54.27349
2018-03-30 13:30:00+00:00,35.0,32.0,6.11,6.71,,47.59359,-54.27349
2018-03-30 13:40:00+00:00,35.0,39.0,4.96,5.76,,47.59359,-54.27349
2018-03-30 13:50:00+00:00,16.0,18.0,4.68,5.04,,47.59359,-54.27349
2018-03-30 14:00:00+00:00,16.0,9.0,5.18,6.38,,47.59359,-54.27349
2018-03-30 14:10:00+00:00,15.0,16.0,6.04,7.18,,47.59359,-54.27349
2018-03-30 14:20:00+00:00,20.0,27.0,4.67,5.68,,47.59359,-54.27349
2018-03-30 14:30:00+00:00,14.0,15.0,4.72,5.25,,47.59359,-54.27349
2018-03-30 14:40:00+00:00,359.0,0.0,4.45,4.77,,47.59359,-54.27349
2018-03-30 14:50:00+00:00,5.0,359.0,4.9,5.26,,47.59359,-54.27349
2018-03-30 15:00:00+00:00,13.0,17.0,5.32,6.26,,47.59359,-54.27349
2018-03-30 15:10:00+00:00,13.0,9.0,4.64,5.2,,47.59359,-54.27349
2018-03-30 15:20:00+00:00,28.0,36.0,5.32,6.8,,47.59359,-54.27349
2018-03-30 15:30:00+00:00,18.0,14.0,4.66,5.2,,47.59359,-54.27349
2018-03-30 15:40:00+00:00,22.0,31.0,4.53,5.37,,47.59359,-54.27349
2018-03-30 15:50:00+00:00,30.0,34.0,4.6,5.32,,47.59359,-54.27349
2018-03-30 16:00:00+00:00,26.0,26.0,5.56,6.26,,47.59359,-54.27349
2018-03-30 16:10:00+00:00,36.0,37.0,4.36,4.86,,47.59359,-54.27349
2018-03-30 16:20:00+00:00,41.0,46.0,4.17,4.51,,47.59359,-54.27349
2018-03-30 16:30:00+00:00,48.0,50.0,4.73,4.96,,47.59359,-54.27349
2018-03-30 16:40:00+00:00,68.0,65.0,2.91,3.55,,47.59359,-54.27349
2018-03-30 16:50:00+00:00,67.0,60.0,1.89,2.7,,47.59359,-54.27349
2018-03-30 17:00:00+00:00,92.0,91.0,2.23,2.89,,47.59359,-54.27349
2018-03-30 17:10:00+00:00,79.0,74.0,1.57,2.24,,47.59359,-54.27349
2018-03-30 17:20:00+00:00,75.0,64.0,1.37,1.99,,47.59359,-54.27349
2018-03-30 17:30:00+00:00,96.0,106.0,1.52,2.5,,47.59359,-54.27349
2018-03-30 17:40:00+00:00,142.0,144.0,1.42,1.81,,47.59359,-54.27349
2018-03-30 17:50:00+00:00,90.0,99.0,1.82,2.94,,47.59359,-54.27349
2018-03-30 18:00:00+00:00,197.0,199.0,3.64,4.01,,47.59359,-54.27349
2018-03-30 18:10:00+00:00,185.0,187.0,3.37,3.5,,47.59359,-54.27349
2018-03-30 18:20:00+00:00,180.0,181.0,3.62,3.68,,47.59359,-54.27349
2018-03-30 18:30:00+00:00,200.0,207.0,3.23,3.48,,47.59359,-54.27349
2018-03-30 18:40:00+00:00,224.0,225.0,6.2,6.48,,47.59359,-54.27349
2018-03-30 18:50:00+00:00,228.0,229.0,6.24,6.85,,47.59359,-54.27349
2018-03-30 19:00:00+00:00,233.0,234.0,5.44,5.93,,47.59359,-54.27349
2018-03-30 19:10:00+00:00,235.0,236.0,6.56,7.39,,47.59359,-54.27349
2018-03-30 19:20:00+00:00,235.0,237.0,6.28,7.25,,47.59359,-54.27349
2018-03-30 19:30:00+00:00,231.0,235.0,6.77,7.79,,47.59359,-54.27349
2018-03-30 19:40:00+00:00,233.0,234.0,7.08,7.92,,47.59359,-54.27349
2018-03-30 19:50:00+00:00,231.0,231.0,6.57,7.61,,47.59359,-54.27349
2018-03-30 20:00:00+00:00,228.0,227.0,6.74,7.62,,47.59359,-54.27349
2018-03-30 20:10:00+00:00,230.0,232.0,6.23,6.84,,47.59359,-54.27349
2018-03-30 20:20:00+00:00,242.0,243.0,6.63,7.79,,47.59359,-54.27349
2018-03-30 20:30:00+00:00,243.0,244.0,6.53,8.33,,47.59359,-54.27349
2018-03-30 20:40:00+00:00,244.0,250.0,5.74,6.73,,47.59359,-54.27349
2018-03-30 20:50:00+00:00,250.0,250.0,6.23,6.64,,47.59359,-54.27349
2018-03-30 21:00:00+00:00,239.0,236.0,4.3,4.95,,47.59359,-54.27349
2018-03-30 21:10:00+00:00,227.0,230.0,4.35,5.33,,47.59359,-54.27349
2018-03-30 21:20:00+00:00,214.0,215.0,4.27,4.6,,47.59359,-54.27349
2018-03-30 21:30:00+00:00,195.0,196.0,5.31,5.84,,47.59359,-54.27349
2018-03-30 21:40:00+00:00,178.0,178.0,4.23,4.56,,47.59359,-54.27349
2018-03-30 21:50:00+00:00,214.0,215.0,4.63,4.99,,47.59359,-54.27349
2018-03-30 22:00:00+00:00,219.0,219.0,5.76,6.19,,47.59359,-54.27349
2018-03-30 22:10:00+00:00,219.0,215.0,6.23,6.8,,47.59359,-54.27349
2018-03-30 22:20:00+00:00,217.0,218.0,4.88,5.25,,47.59359,-54.27349
2018-03-30 22:30:00+00:00,211.0,213.0,5.69,6.27,,47.59359,-54.27349
2018-03-30 22:40:00+00:00,227.0,231.0,7.45,8.48,,47.59359,-54.27349
2018-03-30 22:50:00+00:00,214.0,215.0,6.33,7.19,,47.59359,-54.27349
2018-03-30 23:00:00+00:00,191.0,190.0,5.82,6.65,,47.59359,-54.27349
2018-03-30 23:10:00+00:00,224.0,223.0,5.64,6.28,,47.59359,-54.27349
2018-03-30 23:20:00+00:00,223.0,222.0,5.11,5.44,,47.59359,-54.27349
2018-03-30 23:30:00+00:00,222.0,222.0,5.81,6.3,,47.59359,-54.27349
2018-03-30 23:40:00+00:00,216.0,221.0,5.7,6.22,,47.59359,-54.27349
2018-03-30 23:50:00+00:00,224.0,231.0,6.62,7.51,,47.59359,-54.27349
